Miscellaneous Local Product
Issued by NWS North Platte, NE

Home | Current Version | Previous Version | Graphics & Text | Print | Product List | Glossary On
Versions: 1 2 3 4 5 6 7 8 9 10 11 12 13 14 15 16 17 18 19 20 21 22 23 24 25 26 27 28 29 30 31 32 33 34 35 36 37 38 39 40 41 42 43 44 45 46 47 48 49 50
000
AXUS43 KLBF 281510
MISLBF


WESTERN AND NORTH CENTRAL NEBRASKA HOURLY WEATHER ROUNDUP
NATIONAL WEATHER SERVICE NORTH PLATTE NE
1000 AM CDT THU MAY 28 2015

***STATIONS NOT REPORTING VARIABLES SUCH AS SKY/WEATHER OR
PRESSURE ARE PROVIDED BY THE NEBRASKA DEPARTMENT OF
ROADS...RAWS...AND APRS NETWORKS...AND ARE NOT UNDER
NATIONAL WEATHER SERVICE QUALITY CONTROL***

...OBSERVATIONS IN AND NEAR THE EASTERN PANHANDLE OF NEBRASKA...

CITY           SKY/WX    TMP DP  RH WIND       PRES   REMARKS
PINE RIDGE     MOSUNNY   68  54  60 W9        29.95S
CHADRON        MOSUNNY   69  52  54 W9        29.95S
ALLIANCE       MOSUNNY   63  55  75 SW10      30.00R
SIDNEY         PTSUNNY   63  57  81 NW10      30.01F
WHITECLAY        N/A     68  50  52 W6          N/A
BIG SPRINGS      N/A     61  58  88 CALM        N/A
$$

...OBSERVATIONS IN NORTH CENTRAL NEBRASKA...

CITY           SKY/WX    TMP DP  RH WIND       PRES   REMARKS
VALENTINE      MOSUNNY   68  56  65 S9        29.95S
THEDFORD       MOSUNNY   67  59  74 SW8       29.99S
AINSWORTH      MOSUNNY   70  59  68 S12       29.96S
O`NEILL        MOSUNNY   70  62  75 S10G18    29.98F
ORD            PTSUNNY   69  60  73 SE12      29.99F
BROKEN BOW     PTSUNNY   67  61  81 S9        30.00S
BROWNLEE         N/A     67  57  69 S12         N/A
VALENTINE NWR    N/A     63  58  84 S10         N/A
SPRINGVIEW       N/A     71  60  67 SW3G12      N/A
HALSEY           N/A     64  61  91 S9          N/A
BREWSTER         N/A     74  61  63 S15         N/A
ROSE             N/A     71  61  70 SE14        N/A
NEWPORT          N/A     74  59  59 S17         N/A
SARGENT          N/A     66  61  85 SE3         N/A
COMSTOCK         N/A     75  66  72 S10         N/A
EWING            N/A     71  61  71 S9G17       N/A
$$

...OBSERVATIONS IN SOUTHWEST NEBRASKA AND FAR NORTHEAST COLORADO...

CITY           SKY/WX    TMP DP  RH WIND       PRES   REMARKS
WRAY           FAIR      64  56  74 SW6       30.01S
HOLYOKE        PTSUNNY   63  55  77 SW7       30.01R
IMPERIAL       PTSUNNY   63  56  78 S8        29.99S
OGALLALA       CLOUDY    61  57  88 SW3       30.00F
NORTH PLATTE   MOSUNNY   65  57  75 SE7       30.00R
MCCOOK         CLOUDY    61  57  87 MISG      30.02R
LEXINGTON      CLOUDY    63  62  96 SE9       30.02F
PAXTON           N/A     62  59  89 S3          N/A
GOTHENBURG       N/A     64  55  73 SE7         N/A
CALLAWAY         N/A     67  60  79 S20         N/A
$$

...NORTH PLATTE AREA...

CITY           SKY/WX    TMP DP  RH WIND       PRES   REMARKS
AIRPORT        MOSUNNY   65  57  75 SE7       30.00R
DOWNTOWN         N/A     66  58  75 SE5         N/A
$$

...SOME WEATHER OBSERVATIONS FROM AROUND THE REGION...

CITY           SKY/WX    TMP DP  RH WIND       PRES   REMARKS
DENVER         PTSUNNY   62  54  74 NW10      30.07F
LARAMIE        CLOUDY    53  39  59 W12G22    30.15R
CHEYENNE       PTSUNNY   59  44  57 SW3       30.09F
SCOTTSBLUFF    MOSUNNY   63  56  78 MISG      30.02R
RAPID CITY     MOSUNNY   64  55  72 N12       29.95R
PIERRE         MOSUNNY   70  58  65 S9        29.86F
WINNER         FAIR      73  58  59 S15       29.92S
SIOUX FALLS    CLOUDY    70  55  59 S10       30.02F
OMAHA          CLOUDY    68  58  70 S13       30.03F
GRAND ISLAND   PTSUNNY   68  60  75 SE14      30.03F
KANSAS CITY    CLOUDY    66  64  93 E12       30.07F
WICHITA        CLOUDY    69  64  84 SE16      30.01S
HAYS           CLOUDY    64  55  72 E5        30.03R
LIBERAL        PTSUNNY   66  55  68 S23G35    30.02F
GOODLAND       CLOUDY    64  59  83 S9        30.01F
$$



USA.gov is the U.S. government's official web portal to all federal, state and local government web resources and services.